Dewpoint
14 12 11 12 12 11 10 8 6 3 -0 4 14 13 10 10 10 13 14 14 12 7 -1 -3 -4 3 10 10 5 10 10 8 8 8 10 11 10 3 4 11 12 11 11
13 11 11 12 12 11 10 8 5 2 -0 8 15 14 14 14 14 14 14 11 5 -3 -6 -13 -8 2 6 8 10 11 11 7 7 9 11 12 12 9 4 6 10 11 11
12 12 12 12 12 11 9 8 4 1 -1 6 15 15 15 15 14 14 12 7 -4 -8 -13 -10 -3 4 9 9 10 11 10 5 6 9 12 12 12 12 10 7 5 5 7
12 14 12 12 11 10 9 7 3 2 -4 -2 13 14 14 14 14 13 6 -5 -9 -12 -7 -5 5 11 11 10 11 9 4 2 0 3 7 10 10 10 11 10 11 11 12
12 14 14 12 11 10 10 6 3 -0 -3 -4 -0 13 14 14 13 2 -6 -10 -10 -6 -2 2 10 11 11 10 9 5 1 -2 -6 -7 -7 -6 -3 1 0 -1 2 9 12
13 13 14 12 11 10 10 6 4 -2 -5 -4 -4 -3 -1 -2 -6 -8 -11 -8 -5 0 3 8 10 11 10 8 6 4 -0 -4 -6 -6 -7 -8 -9 -10 -11 -11 -10 -6 -2
11 13 14 11 11 11 11 6 5 5 2 -1 -5 -11 -11 -13 -12 -11 -8 -2 2 4 5 8 9 8 7 6 5 2 0 -1 -3 -3 -3 -3 -4 -6 -8 -9 -10 -11 -12
10 13 12 13 12 12 11 9 8 9 7 4 -2 -12 -12 -12 -10 -7 -5 0 3 4 4 5 6 6 6 6 2 3 6 4 2 2 1 1 0 -1 -3 -5 -7 -9 -11
10 12 12 13 14 12 11 10 9 12 11 8 3 -7 -9 -8 -5 -4 -2 -0 1 1 2 3 4 3 2 5 5 4 6 6 4 4 3 3 3 3 2 1 -2 -4 -6
11 12 13 13 13 12 12 11 10 12 13 12 7 -1 -6 -6 -4 -2 -1 -0 0 0 0 1 1 1 2 3 6 7 7 6 6 5 4 3 3 3 3 3 3 2 -1
11 13 13 13 13 13 12 12 12 10 11 13 10 4 -2 -5 -4 -2 -1 -1 0 1 0 0 1 1 2 4 6 8 7 6 5 5 3 3 3 3 3 3 3 3 4
13 13 13 13 13 13 13 13 12 9 7 11 10 8 4 -1 -3 -3 -2 -1 -1 -1 0 0 1 1 1 3 6 8 7 6 6 6 5 4 4 4 4 4 4 4 4
14 14 13 13 13 13 13 13 11 5 3 3 6 9 7 5 2 -1 -3 -2 -2 -2 -2 -2 -2 -0 1 1 4 6 7 6 5 5 5 5 5 5 5 5 6 6 6
14 13 14 13 14 13 12 12 11 5 6 3 1 0 5 6 5 3 2 -0 -0 -0 0 1 1 2 3 3 2 4 4 5 4 4 4 5 6 6 6 6 7 7 8
14 13 13 13 13 13 13 13 12 8 8 3 2 2 1 1 3 3 6 4 3 2 3 4 5 8 7 4 4 3 4 3 3 3 4 5 6 7 7 7 8 8 8
14 13 13 13 13 13 13 12 12 10 10 9 6 5 6 6 5 3 3 5 5 6 6 8 9 9 8 8 8 7 5 2 1 3 4 6 7 8 8 8 8 8 9
13 13 13 13 13 13 12 12 12 11 10 11 11 8 5 5 5 2 4 7 9 9 10 9 9 9 9 8 5 5 6 6 4 5 6 7 8 8 9 9 8 9 9
13 13 13 13 13 13 12 12 12 12 11 11 12 10 6 4 5 6 7 8 10 10 10 10 10 9 8 8 6 6 5 6 6 6 6 7 8 9 10 9 8 8 8
13 13 13 13 14 14 13 12 12 12 12 12 12 11 11 6 6 6 8 9 10 11 11 11 11 9 8 7 6 6 6 7 7 8 8 8 9 10 10 10 9 8 8
13 13 12 13 13 14 13 13 12 12 12 12 12 12 11 10 7 7 9 10 11 11 11 10 8 8 8 7 8 7 7 7 7 7 8 9 10 10 11 11 10 9 8
12 12 12 13 13 13 12 13 13 12 13 13 12 13 12 11 12 11 9 9 9 9 9 8 8 8 8 8 9 9 8 8 8 8 9 10 11 11 10 10 10 10 9
12 12 12 12 12 12 12 13 13 13 13 12 12 12 12 12 12 12 12 11 10 10 10 10 10 9 9 10 10 10 10 9 8 9 10 11 11 11 10 10 9 10 9
10 12 13 12 13 13 12 12 12 13 13 12 12 12 12 13 12 12 13 12 12 10 8 9 10 10 10 11 11 11 11 11 10 10 10 11 11 11 11 10 9 9 8
5 7 10 11 11 12 13 12 11 11 12 12 12 12 12 13 13 13 12 12 11 12 9 10 10 9 10 10 11 11 11 11 11 11 10 10 11 11 10 10 9 9 9
4 4 7 10 10 10 12 12 11 12 11 12 12 12 12 13 13 12 12 12 12 12 12 12 11 10 10 9 9 10 9 9 9 9 10 10 10 10 9 8 9 8 8
5 5 7 8 10 11 11 11 11 11 11 11 11 12 13 12 11 11 11 10 10 11 11 10 9 9 9 8 8 8 9 9 7 8 9 10 10 10 9 8 8 9 8
Wind_Speed
30 29 26 26 23 19 17 15 13 14 16 21 20 20 21 20 20 22 21 18 15 11 11 14 16 21 21 21 20 21 22 23 23 24 24 23 21 20 20 20 20 20 19
36 31 28 26 23 19 16 15 14 15 18 25 23 24 24 24 25 23 20 14 11 12 15 18 23 24 23 23 22 19 19 20 22 22 22 22 19 19 20 17 17 18 17
35 32 29 27 23 20 17 15 15 16 18 25 25 25 25 24 23 20 14 10 13 17 21 25 27 27 25 22 17 16 17 17 17 17 20 23 23 18 18 17 15 14 14
35 33 30 27 24 21 18 16 17 17 18 23 25 25 23 21 18 15 11 14 18 22 25 27 29 27 24 21 15 16 17 17 14 13 14 16 17 16 16 17 15 16 15
36 32 30 28 24 21 19 18 18 18 19 20 22 22 21 18 15 13 17 20 23 25 26 28 28 25 21 16 16 17 17 15 14 13 13 13 13 12 10 10 10 11 11
35 33 30 28 24 21 20 19 20 21 21 21 20 20 19 17 18 20 22 23 24 25 26 26 24 22 17 15 18 17 16 15 15 15 15 15 14 13 11 10 10 9 7
36 33 29 27 24 22 20 20 22 22 21 20 19 20 20 21 22 24 24 25 24 24 24 24 22 20 17 14 16 16 16 15 15 14 14 15 15 13 12 12 11 10 10
38 34 30 26 23 23 21 20 21 21 20 19 19 21 21 23 24 24 23 23 24 24 24 23 21 19 16 13 13 14 15 15 14 14 14 13 13 13 12 12 12 12 12
36 34 32 27 25 24 22 21 21 21 18 18 18 20 22 23 23 24 23 23 23 22 22 21 19 17 15 13 10 13 12 12 13 13 12 12 12 12 12 12 12 12 12
35 34 32 30 27 26 24 21 21 22 20 17 17 19 21 22 22 22 22 21 21 20 20 18 17 15 13 12 8 7 10 10 10 10 9 9 10 11 11 11 12 12 11
34 34 33 30 28 27 25 23 20 21 21 19 18 17 20 22 21 20 20 20 19 18 17 16 15 13 12 11 10 5 6 7 8 8 8 9 9 9 10 10 11 11 11
38 37 34 31 29 28 26 23 19 22 23 21 19 18 18 19 19 19 19 18 17 16 14 13 12 11 11 10 8 5 3 4 6 6 6 7 8 8 8 9 10 10 10
41 37 35 32 30 29 26 22 21 20 22 19 18 18 18 18 18 18 18 18 16 14 13 11 10 10 9 8 8 6 3 1 2 3 4 5 6 7 7 7 8 9 9
42 38 34 31 30 26 24 23 20 23 19 19 18 20 20 19 17 16 15 14 13 12 12 11 10 9 8 8 7 6 5 3 2 2 3 3 4 5 6 6 7 7 8
38 36 34 31 29 26 22 22 19 22 19 18 19 19 17 17 15 16 12 11 10 10 10 10 10 8 6 7 6 5 5 5 6 4 3 2 3 4 5 5 6 6 7
35 35 33 31 28 26 23 22 19 21 21 17 17 16 16 14 12 13 12 11 10 10 10 10 7 7 5 5 6 6 6 8 8 6 4 3 3 3 5 6 7 7 7
34 36 34 30 28 25 22 21 18 21 21 18 12 13 15 14 11 13 12 12 9 9 9 10 9 7 7 8 8 8 8 7 8 6 5 5 4 4 4 5 7 7 9
34 36 33 29 29 26 22 22 20 20 20 17 13 12 13 13 14 14 14 12 10 10 10 10 9 9 10 11 10 10 10 9 8 8 8 7 6 6 6 6 6 7 9
34 34 31 31 30 29 26 25 22 23 21 18 16 14 15 17 17 15 14 13 13 13 13 13 13 14 14 14 13 12 11 10 9 10 10 10 9 9 8 7 6 8 10
33 33 32 32 31 31 30 30 24 26 23 21 18 17 16 17 19 18 17 17 17 17 17 18 17 17 15 13 12 12 12 12 12 12 12 12 11 11 11 10 10 10 11
32 31 32 30 30 28 28 30 27 29 25 21 20 18 15 15 13 15 17 20 22 22 19 17 16 15 15 13 13 14 14 14 15 14 14 12 13 13 13 13 13 13 13
31 31 32 30 28 28 29 32 30 27 27 25 22 21 20 19 17 15 14 15 19 18 15 14 14 14 14 14 14 13 11 11 12 14 15 14 14 16 16 17 16 15 15
23 29 31 29 31 32 32 29 26 26 26 29 29 28 26 23 21 21 18 13 15 15 10 13 14 14 14 14 15 13 6 3 6 9 13 17 16 17 19 17 16 16 15
20 23 25 26 27 28 31 28 26 28 30 29 29 29 27 24 24 23 23 21 20 20 21 22 17 19 19 17 15 17 17 19 11 8 12 15 17 18 16 17 17 17 17
22 22 25 25 24 25 26 28 26 25 26 27 32 30 27 24 22 23 24 24 21 22 21 20 21 20 17 16 14 14 12 19 17 16 22 19 19 18 18 21 19 20 15
25 23 24 25 26 26 25 25 25 25 25 23 26 31 32 25 17 17 19 16 17 13 12 11 12 13 15 14 16 17 18 22 22 20 27 25 24 22 23 22 23 21 17
Wind_Direction
175 162 162 158 155 152 148 139 130 125 124 120 118 127 137 138 138 133 133 127 119 114 109 114 115 119 118 109 103 101 88 84 87 86 84 77 75 81 87 88 86 80 79
164 160 160 158 155 151 146 136 127 126 129 130 125 125 127 129 132 134 130 121 116 112 113 114 116 116 112 106 105 101 89 87 89 89 85 81 83 80 81 86 81 83 77
163 159 160 158 156 152 146 136 129 129 132 143 136 131 131 132 134 133 129 123 118 117 118 117 116 115 113 108 105 100 91 87 90 91 91 87 83 77 74 77 78 80 78
162 159 160 159 157 152 144 135 130 128 131 147 150 144 138 138 139 137 134 126 122 121 119 120 121 116 109 109 109 98 90 89 85 94 86 91 94 91 86 84 80 80 84
161 160 156 159 156 151 141 136 131 125 127 136 152 154 151 151 149 141 131 126 124 122 121 124 123 118 117 116 105 94 86 86 87 87 85 84 81 82 76 78 87 85 80
160 158 158 158 155 150 143 138 133 127 124 127 133 143 150 148 139 130 127 125 124 123 125 128 127 121 116 111 103 96 88 87 87 84 83 82 78 74 70 68 68 71 68
161 158 158 157 156 150 143 139 136 132 129 127 129 134 137 134 132 131 129 125 125 125 127 128 127 121 119 110 104 97 90 85 82 79 76 74 72 70 66 62 60 59 55
163 159 158 160 154 148 143 140 138 134 133 129 128 131 132 132 132 130 129 127 126 128 127 129 130 127 123 115 105 98 93 82 80 74 71 69 67 64 62 59 56 54 51
166 161 159 159 155 151 147 145 141 139 137 134 133 133 133 132 131 130 129 129 130 129 129 131 131 129 128 120 116 108 99 86 77 70 65 63 62 59 56 54 52 50 48
166 165 162 161 159 156 151 151 150 150 145 148 142 136 136 134 134 134 134 133 131 130 129 130 131 130 131 125 116 96 96 84 73 64 58 55 55 52 49 47 46 46 45
172 168 166 164 162 158 155 153 158 163 162 158 152 145 141 140 141 140 140 138 137 136 135 135 136 136 138 136 132 132 89 77 64 53 51 46 44 44 43 43 42 41 40
175 173 170 166 165 162 161 163 171 159 169 169 159 153 153 148 149 150 150 148 146 145 144 144 147 149 147 148 145 144 119 80 68 54 44 40 39 37 35 36 39 39 39
176 173 172 169 169 168 165 165 166 157 162 168 170 167 163 163 161 160 161 160 159 159 159 161 164 164 163 164 165 168 191 143 60 46 36 35 36 33 30 29 33 36 37
175 175 174 173 171 169 170 172 164 164 162 170 174 176 176 171 171 172 171 170 170 172 171 173 174 175 178 186 186 194 206 236 283 320 1 13 21 33 26 22 21 25 28
175 176 178 176 175 174 177 176 173 170 166 168 169 173 178 181 181 179 174 181 188 194 192 186 184 184 185 193 202 213 226 246 258 270 289 323 347 5 11 8 3 3 7
175 175 178 180 182 176 176 176 176 172 168 166 176 181 185 188 193 199 197 190 187 185 193 194 199 204 215 214 225 229 230 247 256 256 267 283 301 329 344 346 347 344 345
178 177 179 178 186 180 176 179 183 182 180 176 183 200 204 203 203 203 203 202 194 192 193 201 213 233 241 250 243 233 234 235 241 251 260 267 278 304 316 325 336 320 319
183 183 180 184 187 184 184 184 187 188 188 193 197 214 218 216 214 210 213 214 215 217 223 230 240 247 248 249 251 253 250 243 243 255 261 264 268 287 302 309 319 319 325
186 186 187 187 189 189 188 190 199 191 197 201 211 215 222 221 222 225 230 231 229 235 245 250 258 254 253 256 251 246 247 250 258 262 265 267 272 280 284 288 308 303 314
189 192 193 194 196 195 193 194 203 199 201 206 215 218 227 221 226 229 233 239 243 245 248 247 248 251 252 247 247 246 250 255 256 257 263 263 267 267 273 271 283 296 302
197 198 199 201 202 201 200 202 195 199 203 208 215 229 240 229 232 227 234 237 239 240 247 249 251 249 250 249 253 258 262 263 264 266 262 258 259 264 263 262 272 285 293
200 202 201 204 207 210 210 218 208 204 210 214 220 225 234 235 239 237 241 241 235 235 238 244 250 250 247 248 256 266 280 283 273 256 251 246 248 247 255 262 270 281 295
195 201 204 207 211 217 221 219 216 208 213 212 221 228 229 231 234 242 238 232 233 224 245 261 255 253 251 248 252 251 278 277 308 278 275 244 246 254 258 249 274 278 289
197 200 200 199 207 218 224 229 223 222 223 226 228 227 226 228 226 235 245 240 232 231 233 229 244 249 248 251 267 276 263 270 280 295 277 267 246 237 236 256 270 281 285
204 207 208 206 208 215 218 224 228 230 231 234 233 231 234 229 227 232 233 239 245 247 252 242 245 246 256 257 259 260 264 276 275 281 273 259 245 244 255 274 276 283 274
205 210 212 214 218 216 219 220 222 226 225 225 228 225 225 233 232 231 236 239 246 243 237 247 249 257 261 272 280 278 265 267 274 278 267 268 266 263 269 274 274 270 272
Height
1524 1528 1532 1534 1536 1539 1540 1540 1541 1543 1544 1545 1547 1548 1549 1550 1552 1555 1556 1558 1558 1559 1559 1559 1560 1562 1563 1564 1564 1564 1564 1564 1563 1563 1563 1563 1564 1563 1563 1562 1562 1562 1562
1520 1526 1530 1534 1536 1539 1541 1541 1541 1543 1545 1547 1549 1550 1551 1552 1554 1556 1558 1559 1560 1560 1560 1561 1563 1564 1566 1567 1567 1567 1567 1567 1566 1566 1566 1565 1566 1566 1565 1565 1565 1564 1564
1521 1526 1531 1533 1536 1538 1541 1542 1542 1544 1546 1548 1550 1551 1552 1554 1556 1558 1560 1560 1561 1561 1562 1564 1565 1567 1568 1569 1569 1569 1569 1570 1570 1569 1569 1568 1569 1569 1568 1568 1567 1566 1566
1521 1527 1530 1534 1537 1539 1541 1543 1543 1545 1547 1549 1551 1552 1554 1556 1557 1559 1560 1561 1562 1564 1565 1566 1567 1570 1571 1572 1571 1572 1572 1572 1572 1572 1572 1571 1571 1571 1571 1570 1570 1569 1568
1521 1527 1530 1534 1537 1540 1541 1543 1544 1545 1548 1550 1552 1554 1555 1557 1558 1560 1561 1562 1564 1566 1567 1569 1571 1572 1574 1573 1574 1574 1574 1574 1574 1574 1574 1573 1573 1573 1572 1571 1571 1570 1570
1522 1526 1532 1534 1537 1540 1542 1543 1545 1547 1549 1552 1554 1555 1556 1557 1559 1561 1562 1564 1567 1568 1570 1572 1574 1575 1576 1576 1577 1577 1577 1577 1577 1577 1577 1576 1575 1574 1574 1573 1572 1571 1571
1521 1527 1533 1535 1538 1541 1543 1545 1546 1548 1551 1554 1555 1556 1558 1559 1561 1562 1564 1566 1568 1570 1572 1574 1576 1577 1578 1578 1579 1579 1580 1580 1580 1579 1579 1578 1577 1576 1576 1575 1574 1573 1572
1520 1526 1532 1536 1539 1542 1544 1546 1547 1550 1553 1555 1557 1558 1560 1561 1563 1564 1566 1568 1571 1573 1574 1576 1578 1579 1580 1581 1581 1581 1582 1582 1582 1582 1581 1580 1579 1579 1577 1576 1576 1575 1574
1522 1526 1530 1537 1540 1542 1544 1548 1550 1552 1555 1557 1559 1560 1562 1564 1566 1567 1569 1571 1573 1575 1576 1578 1579 1580 1581 1582 1582 1583 1584 1584 1584 1584 1583 1582 1582 1581 1580 1579 1578 1577 1576
1522 1527 1530 1535 1539 1542 1544 1549 1551 1554 1556 1558 1561 1562 1564 1566 1568 1570 1572 1573 1575 1577 1578 1579 1581 1582 1583 1584 1584 1584 1585 1585 1585 1585 1585 1584 1584 1583 1582 1581 1580 1579 1578
1523 1527 1532 1534 1539 1542 1544 1548 1551 1554 1557 1559 1562 1564 1565 1567 1570 1572 1574 1575 1577 1578 1580 1581 1582 1583 1584 1585 1585 1585 1585 1586 1586 1586 1586 1585 1585 1584 1583 1583 1582 1581 1580
1522 1526 1531 1534 1538 1541 1544 1547 1551 1553 1557 1559 1562 1565 1567 1569 1571 1572 1574 1576 1577 1579 1581 1582 1583 1584 1585 1585 1585 1586 1586 1586 1586 1587 1586 1586 1585 1585 1584 1583 1583 1582 1581
1522 1524 1529 1533 1537 1540 1543 1547 1551 1554 1557 1560 1563 1565 1567 1569 1571 1573 1575 1576 1578 1579 1580 1582 1583 1584 1585 1585 1585 1585 1585 1585 1586 1586 1586 1586 1586 1585 1584 1583 1583 1582 1581
1518 1522 1528 1532 1535 1539 1544 1548 1551 1553 1556 1559 1562 1564 1566 1569 1571 1573 1575 1577 1578 1580 1580 1581 1583 1584 1585 1585 1585 1585 1585 1585 1585 1586 1586 1586 1586 1585 1584 1584 1583 1582 1582
1517 1521 1527 1531 1534 1538 1543 1547 1550 1553 1556 1559 1561 1564 1567 1569 1570 1573 1575 1577 1579 1580 1581 1581 1583 1584 1584 1585 1586 1586 1586 1585 1586 1586 1586 1586 1586 1585 1585 1584 1583 1583 1582
1514 1519 1525 1530 1534 1538 1542 1546 1549 1552 1556 1558 1561 1564 1566 1569 1570 1572 1574 1576 1578 1579 1580 1582 1583 1583 1584 1584 1584 1585 1585 1585 1585 1586 1586 1586 1586 1585 1584 1584 1583 1582 1582
1513 1518 1523 1528 1533 1537 1541 1545 1548 1552 1555 1558 1560 1563 1566 1567 1569 1571 1573 1574 1576 1578 1580 1581 1581 1581 1582 1582 1583 1584 1584 1584 1585 1585 1585 1585 1585 1584 1584 1583 1583 1582 1581
1512 1517 1523 1527 1531 1535 1539 1543 1547 1550 1553 1556 1559 1562 1564 1566 1568 1570 1572 1573 1575 1576 1578 1579 1580 1580 1580 1581 1582 1582 1582 1583 1583 1583 1583 1583 1583 1583 1583 1582 1582 1582 1581
1510 1515 1521 1524 1529 1533 1539 1542 1546 1548 1551 1554 1558 1561 1564 1566 1567 1568 1570 1572 1573 1575 1576 1577 1578 1579 1579 1579 1580 1580 1580 1581 1581 1581 1582 1582 1581 1582 1581 1581 1581 1580 1580
1509 1513 1517 1521 1525 1530 1536 1540 1543 1546 1551 1554 1557 1560 1563 1564 1566 1568 1569 1571 1572 1573 1574 1575 1576 1577 1578 1578 1578 1577 1578 1578 1579 1578 1579 1580 1580 1579 1579 1579 1578 1578 1577
1506 1510 1515 1518 1524 1529 1534 1537 1539 1544 1549 1552 1555 1559 1562 1564 1565 1566 1568 1569 1571 1572 1573 1574 1575 1575 1576 1576 1576 1575 1575 1575 1576 1576 1577 1576 1578 1577 1577 1576 1576 1576 1575
1505 1509 1513 1519 1523 1526 1529 1535 1535 1542 1547 1552 1554 1556 1558 1561 1563 1564 1565 1567 1567 1569 1570 1572 1573 1573 1574 1574 1574 1574 1573 1572 1572 1573 1573 1573 1573 1574 1574 1573 1573 1573 1573
1502 1507 1512 1517 1521 1524 1529 1532 1536 1540 1544 1547 1548 1551 1553 1557 1559 1561 1562 1563 1564 1564 1565 1569 1570 1569 1571 1571 1572 1573 1572 1570 1570 1570 1570 1570 1570 1570 1570 1570 1570 1570 1570
1502 1506 1511 1514 1519 1523 1525 1528 1533 1533 1538 1544 1546 1548 1551 1553 1555 1558 1559 1560 1561 1560 1561 1561 1564 1564 1565 1566 1566 1567 1568 1569 1568 1568 1568 1568 1567 1567 1566 1567 1566 1567 1567
1501 1504 1509 1513 1516 1520 1524 1527 1530 1533 1537 1540 1541 1545 1547 1549 1550 1552 1552 1554 1556 1558 1557 1558 1561 1561 1563 1563 1562 1562 1563 1566 1565 1563 1565 1565 1564 1563 1564 1563 1562 1564 1563
1498 1502 1506 1511 1516 1517 1521 1526 1529 1531 1532 1534 1536 1539 1541 1544 1547 1549 1549 1550 1551 1547 1553 1555 1556 1558 1558 1558 1559 1559 1559 1561 1560 1559 1561 1560 1559 1559 1560 1560 1560 1559 1558